Regional Weather Roundup
Issued by NWS Midland/Odessa, TX

Skip options and go directly to product.
Home | Oldest Version | Next Version | Current Version | All | Text Only | Save Text | Print | Product List | Glossary On

Skip product version selection by date and time.   
596
ASUS44 KMAF 250410
RWRMAF
MIDLAND AREA WEATHER ROUNDUP
NATIONAL WEATHER SERVICE MIDLAND TX
1100 PM CDT WED AUG 24 2016

...IN SOUTHWEST TEXAS AND SOUTHEAST NEW MEXICO...

CITY           SKY/WX    TMP DP  RH WIND       PRES   REMARKS
ALPINE         PTCLDY    66  64  91 S5        30.24S
ANDREWS        NOT AVBL
ARTESIA        CLEAR     68  68 100 SE9       30.09R
BIG SPRING     PTCLDY    73  67  81 CALM      30.12R
CARLSBAD       CLEAR     68  65  90 S12       30.07R
DRYDEN           N/A     82  64  54 SE13      30.05R
FORT STOCKTON  MOCLDY    72  65  78 SE6       30.10R
GUAD PASS      CLEAR     65  62  90 NE15      30.23R
HOBBS          CLOUDY    64  64 100 SE6       30.13R
MARFA          CLEAR    N/A N/A N/A CALM      30.22R
MIDLAND AIRPK  CLOUDY    75  63  66 CALM      30.12R THUNDER
MIDLAND INTL   MOCLDY    74  65  73 CALM      30.11R
ODESSA         CLOUDY    70  64  81 CALM      30.11S
PECOS          PTCLDY    69  66  91 E5        30.07R
PRESIDIO       NOT AVBL
SEMINOLE       CLOUDY    67  63  85 CALM      30.13R
SNYDER           N/A     69  65  86 CALM      30.10R
WINK           PTCLDY    69  66  90 SE6       30.08R
$$
...OTHER STATIONS IN TEXAS...

CITY           SKY/WX    TMP DP  RH WIND       PRES   REMARKS
ABILENE        CLEAR     78  66  66 SE14      30.07R
AMARILLO       CLOUDY    69  60  73 S14       30.12R
AUSTIN         PTCLDY    81  75  82 S9        30.08R
BROWNSVILLE    CLEAR     81  76  84 SE8       30.05R
CORPUS CHRISTI PTCLDY    82  77  84 SE7       30.06R
DALLAS FTW     PTCLDY    84  68  58 S12       30.06R
DEL RIO        CLEAR     81  70  69 E6        30.02R
EL PASO        PTCLDY    82  53  36 N6        30.09R
HOUSTON INT    PTCLDY    79  76  90 S5        30.07S
LUBBOCK        PTCLDY    68  63  84 SE9       30.10R
SAN ANGELO     CLEAR     77  65  66 SE6       30.06R
SAN ANTONIO    PTCLDY    80  71  74 SE14      30.09R
WACO           CLEAR     82  73  74 SE10      30.07R
WICHITA FALLS  NOT AVBL
$$
...OTHER LOCATIONS IN NEW MEXICO...

CITY           SKY/WX    TMP DP  RH WIND       PRES   REMARKS
ALAMAGORDO     CLOUDY    70  55  60 NE13      30.16R
ALBUQUERQUE    PTCLDY    69  50  50 N6        30.21R
CANNON AFB     CLEAR     67  54  63 SW6       30.15R
CLOVIS         CLEAR     63  54  72 S6        30.16R
HOLLOMAN AFB   HVY RAIN  72  54  53 N18       30.10F
ROSWELL        CLEAR     68  62  81 W3        30.10R
RUIDOSO          N/A     57  54  88 CALM      30.32R
SANTA FE       CLOUDY    58  48  69 N7        30.27R
TRUTH OR CONSE PTCLDY    71  52  50 W9        30.16R
TUCUMCARI      LGT RAIN  68  56  65 N16       30.15R
$$

USA.gov is the U.S. government's official web portal to all federal, state and local government web resources and services.